Weather History for Hillsboro, TX

Change the Weather History Date:

Monday, December 23, 2013

  Actual Average (KACT) Record (KACT)
Temperature  
Mean Temperature 36 °F 47 °F  
Max Temperature 48 °F 58 °F 81 °F (1964)
Min Temperature 25 °F 36 °F -4 °F (1989)
Degree Days  
Heating Degree Days 28 18  
Month to date heating degree days 376  
Since 1 July heating degree days 704  
Cooling Degree Days 0 0  
Month to date cooling degree days 0  
Year to date cooling degree days 2792  
Moisture  
Dew Point 28 °F    
Average Humidity 74    
Maximum Humidity 90    
Minimum Humidity 51    
Precipitation  
Precipitation 0.00 in 0.09 in 2.70 in (2002)
Month to date precipitation 2.06  
Year to date precipitation 34.00  
Snow  
Snow 0.00 in 0.00 in T in (1998)
Month to date snowfall 0.0  
Since 1 July snowfall 0.1  
Snow Depth -    
Sea Level Pressure  
Sea Level Pressure 30.47 in    
Wind  
Wind Speed 5 mph (NNE)    
Max Wind Speed 12 mph    
Max Gust Speed -    
Visibility 9 miles    
Events      
T = Trace of Precipitation, MM = Missing Value Source: NWS Daily Summary

Daily Weather History Graph

Daily Weather History Graph

Search for Another Location

Airport:

Trip Planner

Search our weather history database for the weather conditions in past years. The results will help you decide how hot, cold, wet, or windy it might be!

Date:

Astronomy

Dec. 23, 2013 Rise Set
Actual Time 7:26 AM CST 5:29 PM CST
Civil Twilight 6:59 AM CST 5:56 PM CST
Nautical Twilight 6:28 AM CST 6:26 PM CST
Astronomical Twilight 5:58 AM CST 6:56 PM CST
Moon 11:19 PM CST (12/23) 11:10 AM CST (12/23)
Length of Visible Light 10h 57m
Length of Day
10h 03m
Waning Gibbous, 68% of the Moon is Illuminated
Dec 23
Waning Gibbous
Dec 25
Last Quarter
Jan 1
New
Jan 7
First Quarter
Jan 15
Full

Hourly Weather History & Observations

Time (CST) Temp. Windchill Dew Point Humidity Pressure Visibility Wind Dir Wind Speed Gust Speed Precip Events Conditions
12:15 AM 31.3 °F 23.9 °F 26.6 °F 83% 30.38 in 10.0 mi NNW 8.1 mph - N/A   Clear
12:35 AM 31.8 °F 22.8 °F 26.6 °F 81% 30.36 in 10.0 mi North 11.5 mph - N/A   Clear
12:55 AM 31.5 °F 23.5 °F 26.1 °F 80% 30.38 in 10.0 mi NNW 9.2 mph - N/A   Clear
1:15 AM 31.3 °F 23.9 °F 25.7 °F 80% 30.38 in 10.0 mi NNW 8.1 mph - N/A   Clear
1:35 AM 30.6 °F 24.7 °F 25.2 °F 80% 30.39 in 10.0 mi NNW 5.8 mph - N/A   Clear
1:55 AM 29.7 °F 22.8 °F 24.6 °F 81% 30.39 in 10.0 mi NNW 6.9 mph - N/A   Clear
2:15 AM 29.3 °F 23.2 °F 24.6 °F 83% 30.39 in 10.0 mi NNW 5.8 mph - N/A   Clear
2:35 AM 29.1 °F 25.4 °F 24.6 °F 83% 30.38 in 10.0 mi North 3.5 mph - N/A   Clear
2:55 AM 29.3 °F - 24.8 °F 83% 30.40 in 10.0 mi Calm Calm - N/A   Clear
3:15 AM 28.4 °F 22.2 °F 24.1 °F 84% 30.40 in 10.0 mi North 5.8 mph - N/A   Clear
3:35 AM 28.4 °F 22.2 °F 24.6 °F 86% 30.40 in 10.0 mi NNW 5.8 mph - N/A   Clear
3:55 AM 28.2 °F 23.1 °F 24.4 °F 86% 30.41 in 10.0 mi NNW 4.6 mph - N/A   Clear
4:15 AM 27.5 °F 22.2 °F 23.9 °F 86% 30.42 in 10.0 mi NNW 4.6 mph - N/A   Clear
4:35 AM 27.5 °F 23.6 °F 23.9 °F 86% 30.42 in 10.0 mi NNW 3.5 mph - N/A   Clear
4:55 AM 27.5 °F 22.2 °F 24.1 °F 87% 30.43 in 10.0 mi NNW 4.6 mph - N/A   Clear
5:15 AM 27.1 °F 21.8 °F 23.7 °F 87% 30.44 in 7.0 mi NNW 4.6 mph - N/A   Clear
5:35 AM 27.3 °F 23.4 °F 23.9 °F 87% 30.44 in 7.0 mi NNW 3.5 mph - N/A   Clear
5:55 AM 27.1 °F 23.2 °F 23.9 °F 88% 30.43 in 7.0 mi North 3.5 mph - N/A   Clear
6:15 AM 27.1 °F 21.8 °F 24.1 °F 88% 30.43 in 7.0 mi North 4.6 mph - N/A   Clear
6:35 AM 27.0 °F 21.6 °F 23.9 °F 88% 30.44 in 7.0 mi North 4.6 mph - N/A   Clear
6:55 AM 26.6 °F 22.6 °F 23.5 °F 88% 30.45 in 7.0 mi North 3.5 mph - N/A   Clear
7:15 AM 26.4 °F - 23.4 °F 88% 30.46 in 7.0 mi Calm Calm - N/A   Clear
7:35 AM 25.9 °F 20.3 °F 23.0 °F 89% 30.47 in 5.0 mi North 4.6 mph - N/A   Clear
7:55 AM 26.6 °F 22.6 °F 23.9 °F 90% 30.47 in 5.0 mi North 3.5 mph - N/A   Clear
8:15 AM 27.5 °F 22.2 °F 24.8 °F 90% 30.48 in 4.0 mi NW 4.6 mph - N/A   Clear
8:35 AM 28.8 °F 25.0 °F 25.7 °F 88% 30.48 in 5.0 mi North 3.5 mph - N/A   Clear
8:55 AM 29.7 °F 23.7 °F 26.6 °F 88% 30.49 in 7.0 mi North 5.8 mph - N/A   Clear
9:15 AM 31.1 °F 25.4 °F 27.5 °F 87% 30.49 in 7.0 mi NNE 5.8 mph - N/A   Clear
9:35 AM 32.0 °F 27.5 °F 28.0 °F 85% 30.51 in 7.0 mi North 4.6 mph - N/A   Clear
9:55 AM 32.5 °F 29.3 °F 28.2 °F 84% 30.52 in 10.0 mi NE 3.5 mph - N/A   Clear
10:15 AM 33.1 °F 30.0 °F 28.0 °F 82% 30.52 in 10.0 mi NNE 3.5 mph - N/A   Clear
10:35 AM 34.9 °F 32.0 °F 28.8 °F 78% 30.53 in 10.0 mi NE 3.5 mph - N/A   Clear
10:55 AM 36.3 °F 31.6 °F 28.9 °F 75% 30.51 in 10.0 mi NE 5.8 mph - N/A   Clear
11:15 AM 37.6 °F 34.0 °F 28.8 °F 70% 30.51 in 10.0 mi NNE 4.6 mph - N/A   Clear
11:35 AM 38.7 °F - 28.9 °F 68% 30.51 in 10.0 mi Calm Calm - N/A   Clear
11:55 AM 39.7 °F 37.6 °F 30.4 °F 69% 30.51 in 10.0 mi WSW 3.5 mph - N/A   Clear
12:15 PM 40.3 °F - 30.0 °F 67% 30.50 in 10.0 mi Calm Calm - N/A   Clear
12:35 PM 41.7 °F - 31.1 °F 66% 30.49 in 10.0 mi Calm Calm - N/A   Clear
12:55 PM 42.8 °F 41.1 °F 31.8 °F 65% 30.48 in 10.0 mi North 3.5 mph - N/A   Clear
1:15 PM 44.4 °F - 31.1 °F 60% 30.48 in 10.0 mi Calm Calm - N/A   Clear
1:35 PM 45.0 °F - 30.4 °F 57% 30.48 in 10.0 mi Calm Calm - N/A   Clear
1:55 PM 45.5 °F - 30.4 °F 56% 30.47 in 10.0 mi Calm Calm - N/A   Clear
2:15 PM 46.4 °F - 31.5 °F 56% 30.47 in 10.0 mi Calm Calm - N/A   Clear
2:35 PM 46.6 °F - 30.0 °F 53% 30.46 in 10.0 mi Calm Calm - N/A   Clear
2:55 PM 47.5 °F - 30.4 °F 52% 30.46 in 10.0 mi Calm Calm - N/A   Clear
3:15 PM 47.7 °F - 30.2 °F 51% 30.46 in 10.0 mi Calm Calm - N/A   Clear
3:35 PM 48.2 °F - 30.7 °F 51% 30.47 in 10.0 mi Calm Calm - N/A   Clear
3:55 PM 48.2 °F - 30.9 °F 51% 30.47 in 10.0 mi Calm Calm - N/A   Clear
4:15 PM 48.0 °F - 30.4 °F 51% 30.47 in 10.0 mi Calm Calm - N/A   Clear
4:35 PM 47.3 °F - 30.4 °F 52% 30.47 in 10.0 mi NE 4.6 mph - N/A   Clear
4:55 PM 46.4 °F 43.5 °F 30.4 °F 54% 30.47 in 10.0 mi NE 5.8 mph - N/A   Clear
5:15 PM 45.0 °F 42.6 °F 31.8 °F 60% 30.48 in 10.0 mi ENE 4.6 mph - N/A   Clear
5:35 PM 43.0 °F 40.3 °F 30.9 °F 62% 30.48 in 10.0 mi NE 4.6 mph - N/A   Clear
5:55 PM 41.0 °F 37.1 °F 31.1 °F 68% 30.48 in 10.0 mi ENE 5.8 mph - N/A   Clear
6:15 PM 40.5 °F 35.8 °F 30.4 °F 67% 30.49 in 10.0 mi NE 6.9 mph - N/A   Clear
6:35 PM 39.4 °F 36.1 °F 30.2 °F 70% 30.49 in 10.0 mi ENE 4.6 mph - N/A   Clear
6:55 PM 39.2 °F 34.2 °F 29.8 °F 69% 30.50 in 10.0 mi NE 6.9 mph - N/A   Clear
7:15 PM 39.0 °F 34.0 °F 29.5 °F 69% 30.50 in 10.0 mi ENE 6.9 mph - N/A   Clear
7:35 PM 38.7 °F 33.6 °F 30.2 °F 72% 30.51 in 10.0 mi ENE 6.9 mph - N/A   Clear
7:55 PM 38.3 °F 32.5 °F 29.8 °F 72% 30.52 in 10.0 mi NE 8.1 mph - N/A   Clear
8:15 PM 37.9 °F 32.7 °F 29.8 °F 73% 30.52 in 10.0 mi ENE 6.9 mph - N/A   Clear
8:35 PM 36.9 °F 32.2 °F 29.3 °F 74% 30.52 in 10.0 mi NE 5.8 mph - N/A   Clear
8:55 PM 37.9 °F 32.1 °F 29.8 °F 73% 30.53 in 10.0 mi ENE 8.1 mph - N/A   Clear
9:15 PM 37.6 °F 32.3 °F 29.3 °F 72% 30.53 in 10.0 mi ENE 6.9 mph - N/A   Clear
9:35 PM 37.4 °F 32.1 °F 28.9 °F 71% 30.53 in 10.0 mi ENE 6.9 mph - N/A   Clear
9:55 PM 37.0 °F 31.0 °F 28.9 °F 73% 30.53 in 10.0 mi ENE 8.1 mph - N/A   Clear
10:15 PM 36.5 °F 31.0 °F 28.8 °F 74% 30.53 in 10.0 mi ENE 6.9 mph - N/A   Clear
10:35 PM 36.7 °F 29.4 °F 28.6 °F 72% 30.54 in 10.0 mi ENE 10.4 mph - N/A   Clear
10:55 PM 36.3 °F 30.8 °F 28.4 °F 73% 30.54 in 10.0 mi East 6.9 mph - N/A   Clear
11:15 PM 36.1 °F 29.3 °F 28.4 °F 73% 30.54 in 10.0 mi ENE 9.2 mph - N/A   Clear
11:35 PM 35.8 °F 28.8 °F 28.4 °F 75% 30.53 in 10.0 mi ENE 9.2 mph - N/A   Clear
11:55 PM 36.0 °F 29.0 °F 28.4 °F 74% 30.53 in 10.0 mi ENE 9.2 mph - N/A   Clear